STARLINK-32715 (62569 NORAD) Tracking and Keplerian Element Data

This shows tracking and keplerian element data for the satellite.

Feedback or suggestion? Click here.




ElementValue
Catalog62569
NameSTARLINK-32715
Epoch Orbit489
Epoch Day35.16668981
Epoch Year2025
RAAN27.598
Inclination43.0005
Eccentricity0.0001402
Argument of Perigee271.0667
Mean Anonmoly76.6273
Mean Motion15.50604516
Decay Rate-0.00062537
L11 62569U 25006R 25035.16668981 -.00062537 00000+0 -10677-2 0 9998
L22 62569 43.0005 27.5980 0001402 271.0667 76.6273 15.50604516 4894



Live tracking and technical data element details for STARLINK-32715 (NORAD 62569). STARLINK-32715 can be tracked NOW for your location showing map with azimuth and elevation plus other details from your city location.







IsCatalogInMostPopularTable: catalog: 62569, numindb: 26
Update: records affected: 1



GetName: 62569 STARLINK-32715

Hit Count: updated at: Mon, 19 May 2025 01:16:38 GMT